If you wish to contribute or participate in the discussions about articles you are invited to join SKYbrary as a registered user

 Actions

Uberlândia Airport

From SKYbrary Wiki

SBUL
Airport
ICAO: SBUL – IATA: UDI
Summary
Name Uberlândia Airport
Region South America and Caribbean
Territory Brazil BR.gif
Location Uberlândia, Minas Gerais
Serving Uberlândia
Elevation 943.051 m
3,094 ft943.051 m
Coordinates 18° 53' 1.00" S, 48° 13' 31.01" W
Runways
Designator Length Width Surface ROPS
4/22 1950 m6,397.638 ft
45 m147.638 ft
ASP yes/yes


METAR
Observation SBUL 252300Z 22005KT CAVOK 15/11 Q1019
Station Uberlandia
Date/Time 25 May 2020 23:00:00
Wind direction 220°
Wind speed 05 kts
Lowest cloud amount clouds and visibility OK
Temperature 15°C
Dew point 11°C
Humidity 77%
QNH 1019 hPa
Weather condition n/a

Uberlândia–Ten. Cel. Av. César Bombonato Airport is the airport serving Uberlândia, Brazil.

Climatology

Humid subtropical climate (Köppen climate classification Cwb)

Maps

Terrain

Loading map...

Airport Layout

Loading map...


Accidents & Serious Incidents at or in vicinity of SBUL

None on SKYbrary